logo
Search for airport 
image banner adimage banner adimage banner ad
image banner ad

MMZC - Zacatecas Aeropuerto Internacional Gral. Leobardo C. Ruiz

Located in Zacatecas, Mexico

ICAO - MMZC, IATA - ZCL

Data provided by Airmate  

General information

Coordinates: N22°53'51" W102°41'9"
Elevation is 7126 feet MSL.
 
View others Airports in Zacatecas

Operational data

Special qualification required
Current time UTC:
Current local time:
Weather
METAR: MMZC 240741Z E00000KT 8SM SKC 20/04 A3024 RMK HZY
TAF: TAF MMZC 240418Z 2406/2506 22010KT P6SM SKC TX32/2420Z TN16/2412Z FM241600 30015KT P6SM SCT030 FM250300 23008KT P6SM SKC
View NOTAMs / SUP AIP / TFR affecting this airport [VIEW]
Communications frequencies: [VIEW]

Runways:

RWY identifierQFULength (ft)Width (ft)SurfaceLDA (ft)
0228°9843148ASP
20208°9843148ASP

Airport contact information

Address: Zacatecas Mexico

Satellite view of MMZC